Seattle, WA
on Friday, February 15, 2013

Friday
Previous Day Next Day
Daily Summary
 ActualAverageRecord
Temperature
Mean Temperature °F 43°F  
Max Temperature 56°F 50°F 65°F (1996)
Min Temperature 41°F 37°F 13°F (1956)
Degree Days
Heating Degree Days 16 22  
Month to date heating degree days 297 330  
Since 1 July heating degree days 2871 2979  
Cooling Degree Days 0 0  
Month to date cooling degree days 0 0  
Year to date cooling degree days 0 0  
Moisture
Dew Point 41°F   
Average Humidity 79    
Maximum Humidity 96    
Minimum Humidity 61    
Precipitation
Precipitation 0.00 in 0.12 in 0.94 in (1970)
Month to date precipitation 0.51 1.94  
Year to date precipitation 4.67 7.51  
Snow
Snow 0.00 in in 2.30 in (1980)
Month to date snowfall 0.0  
Since 1 July snowfall 0.6  
Snow Depth 0.00 in   
Wind
Wind Speed 5 mph   
Max Wind Speed 9 mph   
Max Gust Speed 13 mph   
Visibility 4 miles   
Events Fog   

Key: T is trace of precipitation, MM is missing value
Source: NWS Daily Summary
Time(PST)TemperatureDew PointHumidity Pressure Visibility Wind DirectionWind SpeedGust SpeedPrecipitationEvents Conditions
12:53 AM 46.9°F 43.0°F 86% 30.57 in 10.0 miles NNW 3.5 mph - N/A   Overcast
1:53 AM 45.0°F 41.0°F 86% 30.56 in 7.0 miles NNE 5.8 mph - N/A   Scattered Clouds
2:36 AM 44.6°F 41.0°F 87% 30.52 in 1.0 miles NNE 8.1 mph - N/A   Scattered Clouds
2:43 AM 44.6°F 41.0°F 87% 30.52 in 1.0 miles NNE 8.1 mph - N/A   Overcast
2:53 AM 45.0°F 42.1°F 90% 30.54 in 0.2 miles North 6.9 mph - N/A   Overcast
3:43 AM 44.6°F 42.8°F 93% 30.50 in 0.2 miles North 5.8 mph - N/A Fog Fog
3:53 AM 44.1°F 42.1°F 93% 30.52 in 0.2 miles North 4.6 mph - N/A Fog Fog
4:14 AM 44.6°F 42.8°F 93% 30.49 in 0.2 miles NNE 4.6 mph - N/A Fog Fog
4:33 AM 44.6°F 42.8°F 93% 30.49 in 0.2 miles NNE 4.6 mph - N/A Fog Fog
4:53 AM 43.0°F 41.0°F 93% 30.52 in 0.2 miles North 5.8 mph - N/A Fog Fog
5:33 AM 42.8°F 41.0°F 93% 30.48 in 0.2 miles NNE 6.9 mph - N/A Fog Fog
5:53 AM 43.0°F 41.0°F 93% 30.51 in 0.2 miles NNE 5.8 mph - N/A Fog Fog
6:34 AM 42.8°F 39.2°F 87% 30.47 in 0.2 miles North 8.1 mph - N/A Fog Fog
6:53 AM 42.1°F 39.9°F 92% 30.49 in 0.2 miles NNE 8.1 mph - N/A Fog Fog
7:33 AM 41.0°F 39.2°F 93% 30.46 in 0.1 miles NNE 8.1 mph - N/A Fog Fog
7:53 AM 41.0°F 39.9°F 96% 30.49 in 0.1 miles NNE 6.9 mph - N/A Fog Fog
8:44 AM 42.8°F 39.2°F 87% 30.46 in 0.1 miles NE 4.6 mph - N/A Fog Fog
8:53 AM 41.0°F 39.0°F 93% 30.49 in 0.1 miles NNE 8.1 mph - N/A Fog Fog
9:14 AM 41.0°F 39.2°F 93% 30.46 in 0.1 miles North 5.8 mph - N/A Fog Fog
9:23 AM 41.0°F 39.2°F 93% 30.45 in 0.1 miles NNE 6.9 mph - N/A Fog Fog
9:53 AM 42.1°F 39.0°F 89% 30.47 in 0.1 miles NE 6.9 mph - N/A Fog Fog
10:39 AM 42.8°F 39.2°F 87% 30.44 in 1.2 miles North 6.9 mph - N/A   Mostly Cloudy
10:42 AM 42.8°F 39.2°F 87% 30.44 in 1.2 miles North 6.9 mph - N/A   Mostly Cloudy
10:53 AM 44.1°F 41.0°F 89% 30.46 in 1.2 miles North 6.9 mph - N/A   Mostly Cloudy
10:57 AM 44.6°F 41.0°F 87% 30.43 in 7.0 miles North 5.8 mph - N/A   Mostly Cloudy
11:14 AM 46.4°F 41.0°F 81% 30.42 in 10.0 miles Variable 5.8 mph - N/A   Scattered Clouds
11:53 AM 50.0°F 41.0°F 71% 30.43 in 10.0 miles NNE 5.8 mph - N/A   Partly Cloudy
12:53 PM 52.0°F 41.0°F 66% 30.39 in 10.0 miles North 5.8 mph - N/A   Partly Cloudy
1:53 PM 54.0°F 41.0°F 62% 30.36 in 10.0 miles North 5.8 mph - N/A   Partly Cloudy
2:53 PM 55.9°F 42.1°F 60% 30.33 in 10.0 miles North 4.6 mph - N/A   Partly Cloudy
3:53 PM 55.9°F 42.1°F 60% 30.30 in 10.0 miles North 5.8 mph - N/A   Partly Cloudy
4:53 PM 53.1°F 41.0°F 64% 30.28 in 10.0 miles WNW 4.6 mph - N/A   Partly Cloudy
5:53 PM 48.9°F 39.9°F 71% 30.27 in 10.0 miles North 6.9 mph - N/A   Partly Cloudy
6:53 PM 46.9°F 39.9°F 77% 30.25 in 10.0 miles NNW 6.9 mph - N/A   Partly Cloudy
7:53 PM 44.1°F 39.9°F 85% 30.25 in 10.0 miles NNW 5.8 mph - N/A   Clear
8:53 PM 44.1°F 39.9°F 85% 30.26 in 10.0 miles North 3.5 mph - N/A   Clear
9:53 PM 43.0°F 39.0°F 86% 30.25 in 10.0 miles NNE 3.5 mph - N/A   Clear
10:53 PM 44.1°F 39.9°F 85% 30.23 in 10.0 miles Calm Calm - N/A   Clear
11:53 PM 42.1°F 37.9°F 85% 30.21 in 9.0 miles Calm Calm - N/A   Clear
Moon Phase
Feb. 15 Feb. 17 Feb. 25 Mar. 04 Mar. 11
Sunrise:07:13 AM (PST) Moon Rise:09:25 AM (PST)2/15
Sunset:05:33 PM (PST) Moon Set:No Moon Set/

Copyright © 2014 The Weather Underground, Inc.